Simultaneous Nadir Overpasses (SNOs) Predictions

Prediction of SNOs between LANDSAT-8 and NPP Satellite Orbit:

Table of predicted SNOs for the next 14.0 days since TLE Epoch: 4/20/2015
Index Date (LANDSAT-8) Time (LANDSAT-8) Lat,Lon (LANDSAT-8) SZA (LANDSAT-8 ) Date (NPP) Time (NPP) Lat,Lon (NPP) SZA (NPP ) Distance(km) Time Diff (sec)
1 04/23/2015 02:50:20 70.74, 134.45 58.26 04/23/2015 02:49:13 70.74, 134.47 58.28 0.73 67
2 04/23/2015 03:39:49 -70.68, -58.00 121.81 04/23/2015 03:39:55 -70.66, -58.07 121.83 3.38 6
3 04/23/2015 04:29:22 70.25, 109.01 57.76 04/23/2015 04:30:33 70.23, 109.91 57.72 34.03 71
4 04/25/2015 19:06:48 70.71,-109.70 57.36 04/25/2015 19:06:03 70.74,-109.74 57.38 2.68 45
5 04/25/2015 19:56:18 -70.60, 57.76 122.77 04/25/2015 19:56:44 -70.60, 57.80 122.78 1.76 26
6 04/28/2015 11:23:16 70.67, 6.11 56.45 04/28/2015 11:22:52 70.69, 6.12 56.47 1.95 24
7 04/28/2015 12:12:45 -70.61, 173.65 123.62 04/28/2015 12:13:34 -70.60, 173.59 123.63 3.05 49
8 05/01/2015 02:50:14 -70.87, -45.35 124.17 05/01/2015 02:49:01 -70.96, -45.85 124.07 20.80 73
9 05/01/2015 03:39:43 70.66, 121.97 55.61 05/01/2015 03:39:41 70.65, 121.97 55.60 1.21 2
10 05/01/2015 04:29:13 -70.55, -70.56 124.51 05/01/2015 04:30:23 -70.55, -70.56 124.51 1.06 70
11 05/03/2015 19:06:42 -70.73, 70.31 125.11 05/03/2015 19:05:45 -70.72, 70.33 125.12 1.25 57
12 05/03/2015 19:56:09 70.62,-122.20 54.77 05/03/2015 19:56:29 70.61,-122.19 54.77 0.82 20
